| time (UTC) | temp F | wind direction | speed MPH | gust MPH | rain 1hr in | rain 24hr in | rain mn in | humidity % | barometer mb |
| 20260504081553 | 55 | 146 | 1.0 | 3.0 | 0.00 | 0.00 | 0.00 | 5 | 982.2 |
| 20260504050022 | 59 | 138 | 1.0 | 4.0 | 0.00 | 0.00 | 0.00 | 58 | 983.7 |
| 20260504044516 | 59 | 149 | 2.0 | 5.0 | 0.00 | 0.00 | 0.00 | 58 | 983.9 |
| 20260504043015 | 59 | 140 | 3.0 | 6.0 | 0.00 | 0.00 | 0.00 | 59 | 983.9 |
| 20260504041517 | 59 | 163 | 1.0 | 2.0 | 0.00 | 0.00 | 0.00 | 61 | 984.2 |
| 20260504040011 | 59 | 163 | 2.0 | 3.0 | 0.00 | 0.00 | 0.00 | 62 | 984.3 |
| 20260504034514 | 58 | 165 | 2.0 | 3.0 | 0.00 | 0.00 | 0.00 | 64 | 984.5 |
| 20260504033013 | 60 | 165 | 1.0 | 3.0 | 0.00 | 0.00 | 0.00 | 64 | 984.4 |
| 20260504031510 | 60 | 165 | 1.0 | 3.0 | 0.00 | 0.00 | 0.00 | 63 | 984.4 |
| 20260504030009 | 60 | 165 | 1.0 | 2.0 | 0.00 | 0.00 | 0.00 | 64 | 984.6 |
| 20260504024509 | 61 | 165 | 2.0 | 3.0 | 0.00 | 0.00 | 0.00 | 63 | 984.6 |
| 20260504023008 | 62 | 165 | 2.0 | 3.0 | 0.00 | 0.00 | 0.00 | 62 | 984.5 |
| 20260504021507 | 61 | 165 | 2.0 | 4.0 | 0.00 | 0.00 | 0.00 | 63 | 984.5 |
| 20260504020012 | 64 | 188 | 1.0 | 3.0 | 0.00 | 0.00 | 0.00 | 57 | 984.4 |
| 20260504014511 | 64 | 188 | 0.0 | 5.0 | 0.00 | 0.00 | 0.00 | 57 | 984.4 |
| 20260504013006 | 65 | 232 | 2.0 | 4.0 | 0.00 | 0.00 | 0.00 | 55 | 984.3 |
| 20260504011505 | 66 | 244 | 2.0 | 4.0 | 0.00 | 0.00 | 0.00 | 55 | 984.2 |
| 20260504010005 | 66 | 248 | 2.0 | 5.0 | 0.00 | 0.00 | 0.00 | 54 | 984.1 |
| 20260504004515 | 67 | 245 | 3.0 | 8.0 | 0.00 | 0.00 | 0.00 | 54 | 984.1 |
| 20260504003005 | 67 | 257 | 2.0 | 7.0 | 0.00 | 0.00 | 0.00 | 56 | 984.2 |
| 20260504001505 | 68 | 263 | 5.0 | 9.0 | 0.00 | 0.00 | 0.00 | 54 | 984.1 |
| 20260504000004 | 69 | 270 | 5.0 | 12.0 | 0.00 | 0.00 | 0.00 | 53 | 983.9 |
| 20260503234503 | 69 | 266 | 7.0 | 9.0 | 0.00 | 0.00 | 0.00 | 53 | 984.3 |
| 20260503233011 | 70 | 248 | 6.0 | 11.0 | 0.00 | 0.00 | 0.00 | 51 | 984.1 |
| 20260503231502 | 70 | 261 | 10.0 | 14.0 | 0.00 | 0.00 | 0.00 | 50 | 984.5 |
| 20260503230002 | 71 | 263 | 6.0 | 13.0 | 0.00 | 0.00 | 0.00 | 49 | 984.1 |
| 20260503224600 | 71 | 246 | 7.0 | 11.0 | 0.00 | 0.00 | 0.00 | 46 | 984.0 |
| 20260503223059 | 71 | 238 | 7.0 | 13.0 | 0.00 | 0.00 | 0.00 | 46 | 984.2 |
| 20260503221600 | 71 | 229 | 11.0 | 17.0 | 0.00 | 0.00 | 0.00 | 45 | 984.1 |
| 20260503220053 | 70 | 213 | 8.0 | 16.0 | 0.00 | 0.00 | 0.00 | 44 | 984.3 |
| 20260503214550 | 69 | 222 | 8.0 | 13.0 | 0.00 | 0.00 | 0.00 | 44 | 984.3 |
| 20260503213048 | 69 | 192 | 7.0 | 14.0 | 0.00 | 0.00 | 0.00 | 45 | 984.5 |
| 20260503211546 | 69 | 217 | 14.0 | 19.0 | 0.00 | 0.00 | 0.00 | 44 | 984.6 |
| 20260503210045 | 68 | 192 | 10.0 | 20.0 | 0.00 | 0.00 | 0.00 | 45 | 984.9 |
| 20260503204545 | 68 | 202 | 12.0 | 17.0 | 0.00 | 0.00 | 0.00 | 44 | 984.9 |
| 20260503203053 | 67 | 207 | 12.0 | 23.0 | 0.00 | 0.00 | 0.00 | 44 | 985.2 |
| 20260503201540 | 67 | 205 | 12.0 | 26.0 | 0.00 | 0.00 | 0.00 | 44 | 985.6 |
| 20260503200039 | 67 | 200 | 11.0 | 20.0 | 0.00 | 0.00 | 0.00 | 44 | 986.3 |
| 20260503194541 | 67 | 198 | 15.0 | 25.0 | 0.00 | 0.00 | 0.00 | 44 | 986.1 |
| 20260503193038 | 66 | 193 | 11.0 | 19.0 | 0.00 | 0.00 | 0.00 | 46 | 986.4 |
| 20260503191537 | 66 | 188 | 16.0 | 25.0 | 0.00 | 0.00 | 0.00 | 42 | 985.9 |
| 20260503190033 | 66 | 210 | 15.0 | 26.0 | 0.00 | 0.00 | 0.00 | 42 | 986.7 |
| 20260503184531 | 69 | 183 | 17.0 | 25.0 | 0.00 | 0.00 | 0.00 | 41 | 987.1 |
| 20260503183028 | 66 | 205 | 16.0 | 26.0 | 0.00 | 0.00 | 0.00 | 44 | 987.3 |
| 20260503181527 | 65 | 165 | 15.0 | 30.0 | 0.00 | 0.00 | 0.00 | 45 | 987.3 |
| 20260503180024 | 65 | 170 | 17.0 | 27.0 | 0.00 | 0.00 | 0.00 | 45 | 988.0 |
| 20260503174521 | 66 | 200 | 16.0 | 23.0 | 0.00 | 0.00 | 0.00 | 45 | 988.7 |
| 20260503173017 | 65 | 225 | 14.0 | 23.0 | 0.00 | 0.00 | 0.00 | 46 | 988.9 |
| 20260503171513 | 63 | 217 | 12.0 | 19.0 | 0.00 | 0.00 | 0.00 | 51 | 989.4 |